sat.trackr.live / text

‹ back to catalog

STARLINK-1568

NORAD 46080 · 2020-055BF

PAYLOAD ACTIVE UNKNOWN

§ Identity

Operator
Country
US
Launch date
2020-08-07
Launch site
AFETR
Launch vehicle
Mass (kg)
RCS (m²)

Purposes: comms

External: N2YO · Heavens-Above · Gunter

§ Orbital elements

Epoch: 2026-09-12T03:20:51.669024Z

Period
92.14 min
Inclination
53.0532°
Eccentricity
0.0004614
Mean motion
15.62803215 rev/d
Perigee alt
376.4 km
Apogee alt
382.7 km
Semi-major
6,757.7 km
B*
5.2631e-4
RAAN
212.4257°
Arg perigee
50.8295°
Mean anomaly
309.3128°
Rev number
33,919

§ Raw data

STARLINK-15681 46080U 20055BF  26255.13948691  .00048053  00000+0  52631-3 0  99902 46080  53.0532 212.4257 0004614  50.8295 309.3128 15.62803215339199

JSON: /api/v1/satellites/46080 · /tle

For live sub-satellite position, see the globe view (requires WebGL).

§ Visibility from observer

Set your observer location to see the next 7 days of passes ≥ 10°. The values pass through the URL so the page stays shareable.

No JS? Fill the form by hand. The geolocation button needs JavaScript.